Regional Weather Roundup
Issued by NWS Sterling, VA

Home | Current Version | Previous Version | Text Only | Print | Product List | Glossary Off
Versions: 1 2 3 4 5 6 7 8 9 10 11 12 13 14 15 16 17 18 19 20 21 22 23 24 25 26 27 28 29 30 31 32 33 34 35 36 37 38 39 40 41 42 43 44 45 46 47 48 49 50

747
ASUS41 KLWX 180011
RWRLWX

REGIONAL WEATHER ROUNDUP
NATIONAL WEATHER SERVICE BALTIMORE MD/WASHINGTON DC
700 PM EST FRI NOV 17 2017

Note: "FAIR" indicates few or no clouds below 12,000 feet
with no significant weather and/or obstructions to visibility.
 TC=TEMPERATURE CELSIUS

 * =Non NWS site. Station does not report precipitation (e.g. rain,
    snow, etc.), thunder, or fog.

DCZ001-MDZ009-015-VAZ040>042-051-053>054-180100-
WASHINGTON METRO

CITY           SKY/WX    TMP DP  RH WIND       PRES   REMARKS
WASHINGTON NAT PTCLDY    47  34  60 CALM      30.15F
DULLES         PTCLDY    37  31  78 CALM      30.14F
ANDREWS AFB    CLEAR     38  28  66 S5        30.14S
FT BELVOIR     CLEAR     38  29  68 CALM      30.14F
QUANTICO       CLEAR     42  32  67 NW5       30.16F
COLLEGE PARK*  CLEAR     37  29  73 CALM      30.15S
LEESBURG*      CLEAR     39  32  75 CALM      30.14S
MANASSAS*      CLEAR     34  29  82 CALM      30.15S
GAITHERSBURG*  CLEAR     37  27  67 CALM      30.14S

$$

MDZ006>007-011-014-180100-
BALTIMORE METRO

CITY           SKY/WX    TMP DP  RH WIND       PRES   REMARKS
BWI AIRPORT    PTCLDY    38  29  70 SW3       30.14S
MD SCIENCE CTR   N/A     48  27  44 MISG      30.15R
MARTIN STATE   PTCLDY    39  32  75 CALM      30.16S
ANNAPOLIS      CLEAR     44  37  76 CALM      30.15S
FORT MEADE*    CLEAR     34  30  86 CALM      30.17S

$$

MDZ012-015-019>023-180100-
MARYLAND EASTERN SHORE

CITY           SKY/WX    TMP DP  RH WIND       PRES   REMARKS
OCEAN CITY     CLEAR     40  32  73 CALM      30.15F
SALISBURY      CLEAR     37  32  82 CALM      30.15S
CAMBRIDGE*     CLEAR     36  34  93 CALM      30.15F FOG
EASTON*        CLEAR     39  30  70 CALM      30.18F

$$

MDZ017>025-180100-
SOUTHERN MARYLAND

CITY           SKY/WX    TMP DP  RH WIND       PRES   REMARKS
PATUXENT RIVER PTCLDY    37  33  85 CALM      30.15F
ST INIGOES     CLEAR     38  34  85 CALM      30.15F
LEONARDTOWN*   CLEAR     37  32  81 CALM      30.17F

$$

MDZ003>005-180100-
NORTH CENTRAL MARYLAND

CITY           SKY/WX    TMP DP  RH WIND       PRES   REMARKS
FREDERICK*     CLEAR     39  28  65 CALM      30.16F
HAGERSTOWN APT CLEAR     43  25  49 E3        30.11F
WESTMINSTER*   CLEAR     43  27  52 CALM      30.13S

$$

MDZ501>502-180100-
WESTERN MARYLAND

CITY           SKY/WX    TMP DP  RH WIND       PRES   REMARKS
OAKLAND*       CLOUDY    36  25  64 SE9       30.01F WCI  29
CUMBERLAND*    CLOUDY    43  30  61 CALM      30.14F

$$

VAZ025>031-180100-
SHENANDOAH VALLEY

CITY           SKY/WX    TMP DP  RH WIND       PRES   REMARKS
WINCHESTER*    CLEAR     36  28  75 CALM      30.11F
FRONT ROYAL*   CLEAR     41  28  60 MISG      30.11F
LURAY*         CLEAR     37  30  75 CALM      30.11F
NEW MARKET*    CLEAR     33  29  86 CALM      30.10F
STAUNTON*      CLEAR     31  26  81 CALM      30.13S
WAYNESBORO*    CLEAR     41  23  49 SW3       30.11F

$$

WVZ021-048>050-054>055-180100-
EASTERN WEST VIRGINIA PANHANDLE

CITY           SKY/WX    TMP DP  RH WIND       PRES   REMARKS
MARTINSBURG    CLEAR     37  26  64 CALM      30.11F
PETERSBURG*    CLOUDY    33  29  83 CALM      30.10F

$$

VAZ036>039-050-180100-
CENTRAL FOOTHILLS

CITY           SKY/WX    TMP DP  RH WIND       PRES   REMARKS
CHARLOTTESVILL CLEAR     49  25  39 S3        30.12F
CULPEPER*      CLEAR     36  28  74 CALM      30.14F
ORANGE*        CLEAR     36  30  80 CALM      30.13F
GORDONSVILLE*  CLEAR     37  32  82 CALM      30.13F
WARRENTON*     NOT AVBL

$$

VAZ055>057-180100-
NORTH AND CENTRAL PIEDMONT

CITY           SKY/WX    TMP DP  RH WIND       PRES   REMARKS
FREDERICKSBRG* CLEAR     38  32  76 CALM      30.14F
STAFFORD*      CLEAR     35  32  90 CALM      30.19S

$$

NCZ024-NYZ072-PAZ021-071-VAZ022-071-180100-
OTHER REGIONAL OBSERVATIONS

CITY           SKY/WX    TMP DP  RH WIND       PRES   REMARKS
NEW YORK CITY  CLEAR     43  17  35 NW8       30.10S
PHILADELPHIA   PTCLDY    47  21  35 W7        30.13S
PITTSBURGH     CLOUDY    39  28  64 SE5       30.03F
ROANOKE        CLEAR     48  23  37 SE3       30.13F
RICHMOND       PTCLDY    40  32  73 CALM      30.16R
RALEIGH        PTCLDY    42  34  73 VRB3      30.15F

$$

ANZ530>537-180100-
MARINE OBSERVATIONS

STATION/POSITION TIME  TEMP    WIND        PRES
                       AIR SEA DIR/SP/G
                 (UTC) (F)     (DEG/KT/KT) (MB)
THOMAS PT LIGHT  0000   49 53  300/  4/  5   N/A

$$





USA.gov is the U.S. government's official web portal to all federal, state and local government web resources and services.